Project,Study,Ord_Occ,Event_Num,Cast_ID,Date_Time_UTC,Date_Time_PST,Lat_Dec,Lon_Dec,Sta_ID,Line,Sta,Depth,Pressure,PrQ,Temp1,Temp1Q,Temp2,Temp2Q,TempAve,Salt1,Salt1Q,Salt1_Corr,Salt2,Salt2Q,Salt2_Corr,SaltAve_Corr,Ox1,Ox1Q,Ox1_CruiseCorr,Ox1_StaCorr,Ox2,Ox2Q,Ox2_CruiseCorr,Ox2_StaCorr,OxAve_StaCorr,Ox1uM,Ox1uM_CruiseCorr,Ox1uM_StaCorr,Ox2uM,Ox2uM_CruiseCorr,Ox2uM_StaCorr,OxAveuM_StaCorr,FluorV,FluorQ,EstChl_CruiseCorr,EstChl_StaCorr,ISUSV,ISUSQ,EstNO3_CruiseCorr,EstNO3_StaCorr,SigThetaTS1,SigThetaTS1Q,SigThetaTS2,SigThetaTS2Q,BAT,XMiss,TransQ,pH,pHQ,SPAR,SPARQ,PAR,PARQ,PoT1,PoT2,DynHt,SVA,OxSat1,OxSat2,BTL_Depth,BTL_Temp,SaltB,OxB,OxBuM,Chl-a,Phaeo,NO3,NO2,NH4,PO4,SIL
CalCOFI,2007SR,005,6,2007_005u,14-Jul-2020 04:03:46,13-Jul-2020 20:03:46,32.84621,-117.53024,093.3 030.0,093.3,030.0,515.000,519.301,,6.5435,,6.5444,,6.5440,34.2856,,34.2858,34.2865,,34.2881,34.2870,0.4010,,0.4013,0.4113,1.5574,,-99.0,0.5095,0.4604,17.441,17.7186,18.0677,67.729,,26.0895,22.0786,0.0321,,,,,,,,26.9240,,26.9246,,0.6301,85.4267,,7.557,,5.7128E+00,,8.1723E-02,,6.4961,6.4970,0.9109,,5.851,22.721,515,6.544,34.2678,0.447,19.44,,,37.41,0.00,0.13,2.99,66.71
CalCOFI,2007SR,005,6,2007_005u,14-Jul-2020 04:03:53,13-Jul-2020 20:03:53,32.84621,-117.53024,093.3 030.0,093.3,030.0,514.000,518.291,,6.5455,,6.5455,,6.5455,34.2856,,34.2858,34.2864,,34.2880,34.2869,0.4038,,0.4042,0.4143,1.5507,,-99.0,0.4920,0.4532,17.561,17.8438,18.1927,67.437,,25.3538,21.7733,0.0322,,,,,,,,26.9237,,26.9243,,0.6299,85.4314,,7.557,,5.7128E+00,,8.4637E-02,,6.4982,6.4982,0.9112,,5.891,22.624,,,,,,,,,,,,
CalCOFI,2007SR,005,6,2007_005u,14-Jul-2020 04:03:54,13-Jul-2020 20:03:54,32.84620,-117.53024,093.3 030.0,093.3,030.0,513.000,517.282,,6.5483,,6.5494,,6.5489,34.2858,,34.2860,34.2868,,34.2884,34.2872,0.4074,,0.4080,0.4180,1.5470,,-99.0,0.4824,0.4502,17.716,18.0056,18.3542,67.278,,24.9532,21.6537,0.0324,,,,,,,,26.9234,,26.9241,,0.6307,85.4123,,7.558,,5.7128E+00,,8.0080E-02,,6.5011,6.5022,0.9112,,5.944,22.573,,,,,,,,,,,,
CalCOFI,2007SR,005,6,2007_005u,14-Jul-2020 04:03:55,13-Jul-2020 20:03:55,32.84622,-117.53024,093.3 030.0,093.3,030.0,512.000,516.272,,6.5560,,6.5564,,6.5562,34.2856,,34.2858,34.2864,,34.2880,34.2869,0.4044,,0.4049,0.4149,1.5502,,-99.0,0.4907,0.4528,17.589,17.8731,18.2219,67.418,,25.3059,21.7639,0.0311,,,,,,,,26.9223,,26.9229,,0.6313,85.4009,,7.558,,5.7128E+00,,7.8390E-02,,6.5088,6.5092,0.9112,,5.902,22.623,,,,,,,,,,,,
CalCOFI,2007SR,005,6,2007_005u,14-Jul-2020 04:03:56,13-Jul-2020 20:03:56,32.84622,-117.53024,093.3 030.0,093.3,030.0,511.000,515.262,,6.5632,,6.5631,,6.5632,34.2852,,34.2854,34.2861,,34.2877,34.2866,0.4041,,0.4045,0.4146,1.5497,,-99.0,0.4894,0.4520,17.575,17.8584,18.2073,67.397,,25.2530,21.7302,0.0326,,,,,,,,26.9211,,26.9217,,0.6320,85.3855,,7.557,,5.7128E+00,,7.9118E-02,,6.5161,6.5160,0.9112,,5.898,22.619,,,,,,,,,,,,
CalCOFI,2007SR,005,6,2007_005u,14-Jul-2020 04:03:58,13-Jul-2020 20:03:58,32.84622,-117.53024,093.3 030.0,093.3,030.0,510.000,514.253,,6.5646,,6.5649,,6.5648,34.2853,,34.2855,34.2860,,34.2876,34.2866,0.4041,,0.4045,0.4146,1.5436,,-99.0,0.4735,0.4441,17.572,17.8553,18.2042,67.130,,24.5803,21.3923,0.0322,,,,,,,,26.9209,,26.9214,,0.6320,85.3863,,7.557,,5.7128E+00,,7.4924E-02,,6.5176,6.5179,0.9112,,5.898,22.531,,,,,,,,,,,,
CalCOFI,2007SR,005,6,2007_005u,14-Jul-2020 04:03:59,13-Jul-2020 20:03:59,32.84622,-117.53024,093.3 030.0,093.3,030.0,509.000,513.243,,6.5645,,6.5647,,6.5646,34.2852,,34.2854,34.2859,,34.2875,34.2865,0.4043,,0.4048,0.4148,1.5403,,-99.0,0.4649,0.4399,17.583,17.8668,18.2156,66.987,,24.2200,21.2178,0.0328,,,,,,,,26.9208,,26.9213,,0.6312,85.4029,,7.558,,5.7128E+00,,8.0126E-02,,6.5176,6.5178,0.9112,,5.901,22.483,,,,,,,,,,,,
CalCOFI,2007SR,005,6,2007_005u,14-Jul-2020 04:04:00,13-Jul-2020 20:04:00,32.84620,-117.53024,093.3 030.0,093.3,030.0,508.000,512.234,,6.5649,,6.5647,,6.5648,34.2853,,34.2855,34.2860,,34.2876,34.2866,0.4058,,0.4063,0.4163,1.5435,,-99.0,0.4733,0.4448,17.647,17.9336,18.2823,67.126,,24.5702,21.4263,0.0322,,,,,,,,26.9208,,26.9214,,0.6307,85.4142,,7.558,,5.7128E+00,,8.1280E-02,,6.5181,6.5179,0.9112,,5.923,22.529,,,,,,,,,,,,
CalCOFI,2007SR,005,6,2007_005u,14-Jul-2020 04:04:01,13-Jul-2020 20:04:01,32.84621,-117.53024,093.3 030.0,093.3,030.0,507.000,511.224,,6.5672,,6.5676,,6.5674,34.2851,,34.2853,34.2858,,34.2874,34.2864,0.4103,,0.4110,0.4210,1.5438,,-99.0,0.4741,0.4476,17.844,18.1393,18.4876,67.139,,24.6030,21.5453,0.0327,,,,,,,,26.9204,,26.9209,,0.6313,85.4014,,7.559,,5.7128E+00,,7.9356E-02,,6.5204,6.5208,0.9112,,5.989,22.535,,,,,,,,,,,,
CalCOFI,2007SR,005,6,2007_005u,14-Jul-2020 04:04:02,13-Jul-2020 20:04:02,32.84622,-117.53024,093.3 030.0,093.3,030.0,506.000,510.215,,6.5685,,6.5688,,6.5687,34.2852,,34.2854,34.2860,,34.2876,34.2865,0.4158,,0.4168,0.4268,1.5436,,-99.0,0.4735,0.4502,18.083,18.3887,18.7367,67.128,,24.5753,21.6560,0.0324,,,,,,,,26.9203,,26.9208,,0.6312,85.4030,,7.559,,5.7128E+00,,7.8088E-02,,6.5218,6.5221,0.9112,,6.070,22.532,,,,,,,,,,,,
CalCOFI,2007SR,005,6,2007_005u,14-Jul-2020 04:04:03,13-Jul-2020 20:04:03,32.84622,-117.53024,093.3 030.0,093.3,030.0,505.000,509.205,,6.5815,,6.5822,,6.5819,34.2841,,34.2843,34.2850,,34.2866,34.2855,0.4170,,0.4180,0.4280,1.5414,,-99.0,0.4678,0.4479,18.133,18.4409,18.7888,67.036,,24.3435,21.5662,0.0331,,,,,,,,26.9177,,26.9183,,0.6309,85.4082,,7.560,,5.7128E+00,,7.7827E-02,,6.5349,6.5356,0.9112,,6.088,22.508,,,,,,,,,,,,
CalCOFI,2007SR,005,6,2007_005u,14-Jul-2020 04:04:04,13-Jul-2020 20:04:04,32.84622,-117.53024,093.3 030.0,093.3,030.0,504.000,508.195,,6.5901,,6.5906,,6.5904,34.2815,,34.2817,34.2821,,34.2837,34.2827,0.4185,,0.4196,0.4296,1.5346,,-99.0,0.4501,0.4399,18.198,18.5088,18.8565,66.737,,23.5901,21.2233,0.0322,,,,,,,,26.9144,,26.9149,,0.6315,85.3955,,7.559,,5.7128E+00,,7.7062E-02,,6.5436,6.5440,0.9112,,6.111,22.411,,,,,,,,,,,,
CalCOFI,2007SR,005,6,2007_005u,14-Jul-2020 04:04:05,13-Jul-2020 20:04:05,32.84622,-117.53024,093.3 030.0,093.3,030.0,503.000,507.186,,6.5921,,6.5924,,6.5923,34.2797,,34.2799,34.2803,,34.2819,34.2809,0.4186,,0.4197,0.4297,1.5354,,-99.0,0.4522,0.4410,18.205,18.5161,18.8638,66.772,,23.6783,21.2711,0.0324,,,,,,,,26.9128,,26.9132,,0.6281,85.4701,,7.559,,5.7128E+00,,7.7300E-02,,6.5457,6.5460,0.9112,,6.114,22.424,,,,,,,,,,,,
CalCOFI,2007SR,005,6,2007_005u,14-Jul-2020 04:04:06,13-Jul-2020 20:04:06,32.84621,-117.53024,093.3 030.0,093.3,030.0,502.000,506.176,,6.5939,,6.5943,,6.5941,34.2793,,34.2795,34.2800,,34.2816,34.2806,0.4230,,0.4243,0.4343,1.5364,,-99.0,0.4548,0.4446,18.397,18.7165,19.0639,66.819,,23.7967,21.4303,0.0320,,,,,,,,26.9122,,26.9127,,0.6272,85.4873,,7.559,,5.7128E+00,,8.0556E-02,,6.5476,6.5479,0.9112,,6.178,22.441,,,,,,,,,,,,
CalCOFI,2007SR,005,6,2007_005u,14-Jul-2020 04:04:07,13-Jul-2020 20:04:07,32.84620,-117.53024,093.3 030.0,093.3,030.0,501.000,505.167,,6.5969,,6.5970,,6.5970,34.2791,,34.2793,34.2799,,34.2815,34.2804,0.4236,,0.4249,0.4349,1.5360,,-99.0,0.4538,0.4444,18.422,18.7426,19.0899,66.799,,23.7463,21.4181,0.0320,,,,,,,,26.9116,,26.9122,,0.6267,85.4995,,7.560,,5.7128E+00,,7.9294E-02,,6.5506,6.5508,0.9112,,6.187,22.435,,,,,,,,,,,,
CalCOFI,2007SR,005,6,2007_005u,14-Jul-2020 04:04:08,13-Jul-2020 20:04:08,32.84620,-117.53024,093.3 030.0,093.3,030.0,500.000,504.157,,6.6045,,6.6054,,6.6050,34.2789,,34.2791,34.2799,,34.2815,34.2803,0.4263,,0.4277,0.4377,1.5358,,-99.0,0.4532,0.4455,18.539,18.8648,19.2119,66.789,,23.7211,21.4665,0.0326,,,,,,,,26.9105,,26.9111,,0.6308,85.4121,,7.560,,5.7128E+00,,7.5425E-02,,6.5583,6.5592,0.9112,,6.228,22.436,,,,,,,,,,,,
CalCOFI,2007SR,005,6,2007_005u,14-Jul-2020 04:04:09,13-Jul-2020 20:04:09,32.84620,-117.53024,093.3 030.0,093.3,030.0,499.000,503.148,,6.6191,,6.6193,,6.6192,34.2765,,34.2767,34.2774,,34.2790,34.2779,0.4245,,0.4259,0.4358,1.5339,,-99.0,0.4483,0.4421,18.460,18.7823,19.1295,66.709,,23.5195,21.3245,0.0323,,,,,,,,26.9066,,26.9073,,0.6262,85.5091,,7.559,,5.7128E+00,,7.1965E-02,,6.5729,6.5731,0.9112,,6.203,22.416,,,,,,,,,,,,
CalCOFI,2007SR,005,6,2007_005u,14-Jul-2020 04:04:10,13-Jul-2020 20:04:10,32.84622,-117.53024,093.3 030.0,093.3,030.0,498.000,502.138,,6.6209,,6.6207,,6.6208,34.2762,,34.2764,34.2771,,34.2787,34.2776,0.4318,,0.4335,0.4435,1.5297,,-99.0,0.4374,0.4405,18.778,19.1143,19.4609,66.528,,23.0635,21.2622,0.0323,,,,,,,,26.9061,,26.9069,,0.6254,85.5269,,7.559,,5.7128E+00,,7.7268E-02,,6.5749,6.5746,0.9112,,6.310,22.356,,,,,,,,,,,,
CalCOFI,2007SR,005,6,2007_005u,14-Jul-2020 04:04:11,13-Jul-2020 20:04:11,32.84622,-117.53024,093.3 030.0,093.3,030.0,497.000,501.129,,6.6238,,6.6240,,6.6239,34.2760,,34.2762,34.2770,,34.2786,34.2774,0.4376,,0.4395,0.4495,1.5250,,-99.0,0.4251,0.4373,19.032,19.3794,19.7256,66.323,,22.5470,21.1363,0.0324,,,,,,,,26.9056,,26.9063,,0.6248,85.5392,,7.560,,5.7128E+00,,7.0850E-02,,6.5778,6.5780,0.9112,,6.396,22.289,,,,,,,,,,,,
CalCOFI,2007SR,005,6,2007_005u,14-Jul-2020 04:04:12,13-Jul-2020 20:04:12,32.84622,-117.53024,093.3 030.0,093.3,030.0,496.000,500.119,,6.6353,,6.6351,,6.6352,34.2756,,34.2758,34.2767,,34.2783,34.2771,0.4458,,0.4481,0.4580,1.5286,,-99.0,0.4345,0.4463,19.386,19.7489,20.0945,66.479,,22.9400,21.5173,0.0324,,,,,,,,26.9037,,26.9046,,0.6247,85.5419,,7.560,,5.7128E+00,,7.0940E-02,,6.5894,6.5892,0.9112,,6.517,22.347,,,,,,,,,,,,
CalCOFI,2007SR,005,6,2007_005u,14-Jul-2020 04:04:13,13-Jul-2020 20:04:13,32.84622,-117.53024,093.3 030.0,093.3,030.0,495.000,499.110,,6.6609,,6.6614,,6.6612,34.2736,,34.2738,34.2747,,34.2763,34.2751,0.4509,,0.4534,0.4634,1.5279,,-99.0,0.4327,0.4481,19.612,19.9849,20.3300,66.447,,22.8594,21.5947,0.0326,,,,,,,,26.8987,,26.8995,,0.6248,85.5387,,7.560,,5.7128E+00,,7.4256E-02,,6.6150,6.6155,0.9112,,6.596,22.349,,,,,,,,,,,,
CalCOFI,2007SR,005,6,2007_005u,14-Jul-2020 04:04:14,13-Jul-2020 20:04:14,32.84622,-117.53024,093.3 030.0,093.3,030.0,494.000,498.100,,6.6955,,6.6941,,6.6948,34.2747,,34.2749,34.2758,,34.2774,34.2762,0.4538,,0.4565,0.4664,1.5256,,-99.0,0.4267,0.4466,19.736,20.1143,20.4592,66.349,,22.6125,21.5359,0.0322,,,,,,,,26.8950,,26.8960,,0.6259,85.5162,,7.560,,5.7128E+00,,7.3468E-02,,6.6495,6.6481,0.9112,,6.643,22.333,,,,,,,,,,,,
CalCOFI,2007SR,005,6,2007_005u,14-Jul-2020 04:04:15,13-Jul-2020 20:04:15,32.84622,-117.53024,093.3 030.0,093.3,030.0,493.000,497.091,,6.7283,,6.7271,,6.7277,34.2742,,34.2744,34.2754,,34.2770,34.2757,0.4548,,0.4575,0.4674,1.5201,,-99.0,0.4124,0.4399,19.780,20.1602,20.5051,66.111,,22.0128,21.2590,0.0327,,,,,,,,26.8902,,26.8913,,0.6274,85.4838,,7.560,,5.7128E+00,,7.0786E-02,,6.6823,6.6811,0.9112,,6.663,22.270,,,,,,,,,,,,
CalCOFI,2007SR,005,6,2007_005u,14-Jul-2020 04:04:16,13-Jul-2020 20:04:16,32.84620,-117.53024,093.3 030.0,093.3,030.0,492.000,496.081,,6.7393,,6.7390,,6.7392,34.2740,,34.2742,34.2750,,34.2766,34.2754,0.4575,,0.4603,0.4702,1.5233,,-99.0,0.4207,0.4455,19.897,20.2824,20.6270,66.251,,22.3656,21.4963,0.0328,,,,,,,,26.8886,,26.8894,,0.6287,85.4569,,7.560,,5.7128E+00,,7.9839E-02,,6.6934,6.6931,0.9112,,6.704,22.323,,,,,,,,,,,,
CalCOFI,2007SR,005,6,2007_005u,14-Jul-2020 04:04:17,13-Jul-2020 20:04:17,32.84620,-117.53024,093.3 030.0,093.3,030.0,491.000,495.072,,6.7477,,6.7477,,6.7477,34.2735,,34.2737,34.2744,,34.2760,34.2749,0.4580,,0.4609,0.4708,1.5175,,-99.0,0.4056,0.4382,19.918,20.3043,20.6489,65.997,,21.7256,21.1873,0.0326,,,,,,,,26.8870,,26.8877,,0.6291,85.4469,,7.560,,5.7128E+00,,7.5774E-02,,6.7019,6.7018,0.9112,,6.712,22.242,,,,,,,,,,,,
CalCOFI,2007SR,005,6,2007_005u,14-Jul-2020 04:04:18,13-Jul-2020 20:04:18,32.84621,-117.53024,093.3 030.0,093.3,030.0,490.000,494.062,,6.7527,,6.7536,,6.7532,34.2730,,34.2732,34.2737,,34.2753,34.2743,0.4595,,0.4624,0.4723,1.5163,,-99.0,0.4025,0.4374,19.985,20.3742,20.7187,65.947,,21.5996,21.1592,0.0329,,,,,,,,26.8859,,26.8864,,0.6288,85.4531,,7.560,,5.7128E+00,,6.5997E-02,,6.7069,6.7078,0.9112,,6.736,22.227,,,,,,,,,,,,
CalCOFI,2007SR,005,6,2007_005u,14-Jul-2020 04:04:19,13-Jul-2020 20:04:19,32.84622,-117.53024,093.3 030.0,093.3,030.0,489.000,493.053,,6.7616,,6.7634,,6.7625,34.2725,,34.2727,34.2732,,34.2748,34.2738,0.4631,,0.4662,0.4761,1.5169,,-99.0,0.4040,0.4401,20.141,20.5371,20.8812,65.972,,21.6626,21.2719,0.0326,,,,,,,,26.8843,,26.8847,,0.6287,85.4562,,7.560,,5.7128E+00,,6.9211E-02,,6.7158,6.7177,0.9112,,6.790,22.241,,,,,,,,,,,,
CalCOFI,2007SR,005,6,2007_005u,14-Jul-2020 04:04:20,13-Jul-2020 20:04:20,32.84622,-117.53024,093.3 030.0,093.3,030.0,488.000,492.043,,6.7696,,6.7698,,6.7697,34.2722,,34.2724,34.2730,,34.2746,34.2735,0.4650,,0.4682,0.4781,1.5173,,-99.0,0.4051,0.4416,20.224,20.6237,20.9677,65.988,,21.7029,21.3353,0.0324,,,,,,,,26.8831,,26.8836,,0.6287,85.4562,,7.560,,5.7128E+00,,7.3975E-02,,6.7239,6.7241,0.9112,,6.819,22.250,,,,,,,,,,,,
CalCOFI,2007SR,005,6,2007_005u,14-Jul-2020 04:04:21,13-Jul-2020 20:04:21,32.84622,-117.53024,093.3 030.0,093.3,030.0,487.000,491.034,,6.7784,,6.7791,,6.7788,34.2720,,34.2722,34.2728,,34.2744,34.2733,0.4675,,0.4708,0.4807,1.5167,,-99.0,0.4035,0.4421,20.333,20.7375,21.0813,65.963,,21.6399,21.3606,0.0326,,,,,,,,26.8817,,26.8822,,0.6287,85.4562,,7.560,,5.7128E+00,,7.5521E-02,,6.7328,6.7335,0.9112,,6.857,22.246,,,,,,,,,,,,
CalCOFI,2007SR,005,6,2007_005u,14-Jul-2020 04:04:22,13-Jul-2020 20:04:22,32.84622,-117.53024,093.3 030.0,093.3,030.0,486.000,490.024,,6.7893,,6.7899,,6.7896,34.2718,,34.2720,34.2727,,34.2743,34.2732,0.4671,,0.4704,0.4803,1.5161,,-99.0,0.4020,0.4412,20.314,20.7177,21.0615,65.936,,21.5719,21.3167,0.0329,,,,,,,,26.8801,,26.8806,,0.6314,85.3981,,7.560,,5.7128E+00,,7.9285E-02,,6.7437,6.7444,0.9112,,6.852,22.242,,,,,,,,,,,,
CalCOFI,2007SR,005,6,2007_005u,14-Jul-2020 04:04:23,13-Jul-2020 20:04:23,32.84622,-117.53024,093.3 030.0,093.3,030.0,485.000,489.015,,6.8006,,6.8011,,6.8009,34.2719,,34.2721,34.2726,,34.2742,34.2732,0.4702,,0.4736,0.4835,1.5154,,-99.0,0.4001,0.4418,20.450,20.8597,21.2032,65.908,,21.5013,21.3523,0.0323,,,,,,,,26.8786,,26.8790,,0.6314,85.3984,,7.560,,5.7128E+00,,7.8408E-02,,6.7551,6.7556,0.9112,,6.900,22.239,,,,,,,,,,,,
CalCOFI,2007SR,005,6,2007_005u,14-Jul-2020 04:04:24,13-Jul-2020 20:04:24,32.84622,-117.53024,093.3 030.0,093.3,030.0,484.000,488.005,,6.8074,,6.8078,,6.8076,34.2719,,34.2721,34.2728,,34.2744,34.2733,0.4682,,0.4715,0.4814,1.5145,,-99.0,0.3978,0.4396,20.364,20.7699,21.1136,65.867,,21.3980,21.2558,0.0317,,,,,,,,26.8777,,26.8783,,0.6306,85.4158,,7.560,,5.7128E+00,,8.1152E-02,,6.7620,6.7624,0.9112,,6.872,22.228,,,,,,,,,,,,
CalCOFI,2007SR,005,6,2007_005u,14-Jul-2020 04:04:25,13-Jul-2020 20:04:25,32.84622,-117.53024,093.3 030.0,093.3,030.0,483.000,486.996,,6.8142,,6.8155,,6.8149,34.2725,,34.2727,34.2733,,34.2749,34.2738,0.4735,,0.4771,0.4869,1.5123,,-99.0,0.3921,0.4395,20.595,21.0110,21.3543,65.769,,21.1511,21.2527,0.0321,,,,,,,,26.8772,,26.8776,,0.6297,85.4338,,7.560,,5.7128E+00,,7.7232E-02,,6.7688,6.7701,0.9112,,6.951,22.199,,,,,,,,,,,,
CalCOFI,2007SR,005,6,2007_005u,14-Jul-2020 04:04:26,13-Jul-2020 20:04:26,32.84622,-117.53024,093.3 030.0,093.3,030.0,482.000,485.986,,6.8296,,6.8304,,6.8300,34.2731,,34.2733,34.2740,,34.2756,34.2745,0.4716,,0.4751,0.4849,1.5134,,-99.0,0.3949,0.4399,20.511,20.9233,21.2668,65.817,,21.2721,21.2695,0.0325,,,,,,,,26.8756,,26.8762,,0.6289,85.4510,,7.560,,5.7128E+00,,7.4365E-02,,6.7843,6.7851,0.9112,,6.925,22.223,,,,,,,,,,,,
CalCOFI,2007SR,005,6,2007_005u,14-Jul-2020 04:04:27,13-Jul-2020 20:04:27,32.84622,-117.53024,093.3 030.0,093.3,030.0,481.000,484.977,,6.8507,,6.8539,,6.8523,34.2737,,34.2739,34.2745,,34.2761,34.2750,0.4792,,0.4830,0.4929,1.5111,,-99.0,0.3890,0.4410,20.841,21.2678,21.6107,65.719,,21.0251,21.3179,0.0333,,,,,,,,26.8732,,26.8734,,0.6294,85.4404,,7.560,,5.7128E+00,,8.2377E-02,,6.8054,6.8086,0.9112,,7.040,22.202,,,,,,,,,,,,
CalCOFI,2007SR,005,6,2007_005u,14-Jul-2020 04:04:28,13-Jul-2020 20:04:28,32.84622,-117.53024,093.3 030.0,093.3,030.0,480.000,483.967,,6.8653,,6.8670,,6.8662,34.2734,,34.2736,34.2742,,34.2758,34.2747,0.4840,,0.4880,0.4979,1.5048,,-99.0,0.3726,0.4353,21.052,21.4881,21.8306,65.447,,20.3398,21.0852,0.0317,,,,,,,,26.8710,,26.8714,,0.6293,85.4424,,7.560,,5.7128E+00,,8.4788E-02,,6.8201,6.8218,0.9112,,7.114,22.116,,,,,,,,,,,,
CalCOFI,2007SR,005,6,2007_005u,14-Jul-2020 04:04:29,13-Jul-2020 20:04:29,32.84622,-117.53024,093.3 030.0,093.3,030.0,479.000,482.958,,6.8877,,6.8898,,6.8888,34.2731,,34.2733,34.2741,,34.2757,34.2745,0.4818,,0.4857,0.4956,1.5049,,-99.0,0.3728,0.4342,20.954,21.3858,21.7284,65.450,,20.3474,21.0379,0.0320,,,,,,,,26.8677,,26.8682,,0.6300,85.4274,,7.560,,5.7128E+00,,7.8599E-02,,6.8424,6.8446,0.9112,,7.084,22.129,,,,,,,,,,,,
CalCOFI,2007SR,005,6,2007_005u,14-Jul-2020 04:04:30,13-Jul-2020 20:04:30,32.84622,-117.53024,093.3 030.0,093.3,030.0,478.000,481.949,,6.9343,,6.9393,,6.9368,34.2754,,34.2756,34.2773,,34.2789,34.2773,0.4775,,0.4812,0.4911,1.5063,,-99.0,0.3765,0.4338,20.765,21.1885,21.5315,65.509,,20.4960,21.0138,0.0326,,,,,,,,26.8632,,26.8640,,0.6302,85.4240,,7.561,,5.7128E+00,,8.6302E-02,,6.8890,6.8940,0.9112,,7.028,22.175,,,,,,,,,,,,
CalCOFI,2007SR,005,6,2007_005u,14-Jul-2020 04:04:31,13-Jul-2020 20:04:31,32.84622,-117.53024,093.3 030.0,093.3,030.0,477.000,480.939,,6.9570,,6.9591,,6.9581,34.2772,,34.2774,34.2780,,34.2796,34.2785,0.4774,,0.4811,0.4910,1.5039,,-99.0,0.3702,0.4306,20.764,21.1874,21.5305,65.406,,20.2365,20.8835,0.0328,,,,,,,,26.8615,,26.8618,,0.6298,85.4326,,7.561,,5.7128E+00,,7.9500E-02,,6.9117,6.9138,0.9112,,7.031,22.150,,,,,,,,,,,,
CalCOFI,2007SR,005,6,2007_005u,14-Jul-2020 04:04:32,13-Jul-2020 20:04:32,32.84622,-117.53024,093.3 030.0,093.3,030.0,476.000,479.930,,6.9656,,6.9659,,6.9658,34.2777,,34.2779,34.2784,,34.2800,34.2790,0.4828,,0.4868,0.4966,1.5080,,-99.0,0.3809,0.4388,21.000,21.4338,21.7764,65.584,,20.6850,21.2307,0.0326,,,,,,,,26.8607,,26.8612,,0.6309,85.4091,,7.561,,5.7128E+00,,7.7791E-02,,6.9204,6.9207,0.9112,,7.113,22.214,,,,,,,,,,,,
CalCOFI,2007SR,005,6,2007_005u,14-Jul-2020 04:04:33,13-Jul-2020 20:04:33,32.84622,-117.53024,093.3 030.0,093.3,030.0,475.000,478.920,,6.9707,,6.9723,,6.9715,34.2785,,34.2787,34.2792,,34.2808,34.2798,0.4849,,0.4890,0.4988,1.5002,,-99.0,0.3606,0.4297,21.090,21.5278,21.8702,65.246,,19.8334,20.8518,0.0337,,,,,,,,26.8606,,26.8609,,0.6300,85.4281,,7.563,,5.7128E+00,,8.1628E-02,,6.9255,6.9272,0.9112,,7.144,22.102,,,,,,,,,,,,
CalCOFI,2007SR,005,6,2007_005u,14-Jul-2020 04:04:34,13-Jul-2020 20:04:34,32.84622,-117.53024,093.3 030.0,093.3,030.0,474.000,477.911,,6.9800,,6.9810,,6.9805,34.2789,,34.2791,34.2796,,34.2812,34.2802,0.4802,,0.4841,0.4939,1.4999,,-99.0,0.3598,0.4269,20.883,21.3117,21.6545,65.234,,19.8031,20.7288,0.0332,,,,,,,,26.8597,,26.8600,,0.6308,85.4103,,7.562,,5.7128E+00,,8.4950E-02,,6.9349,6.9359,0.9112,,7.076,22.103,,,,,,,,,,,,
CalCOFI,2007SR,005,6,2007_005u,14-Jul-2020 04:04:35,13-Jul-2020 20:04:35,32.84622,-117.53024,093.3 030.0,093.3,030.0,473.000,476.902,,6.9943,,6.9957,,6.9950,34.2796,,34.2798,34.2805,,34.2821,34.2810,0.4821,,0.4860,0.4959,1.5057,,-99.0,0.3749,0.4354,20.970,21.4025,21.7451,65.487,,20.4406,21.0929,0.0323,,,,,,,,26.8583,,26.8587,,0.6307,85.4134,,7.563,,5.7128E+00,,8.5878E-02,,6.9493,6.9507,0.9112,,7.107,22.196,,,,,,,,,,,,
CalCOFI,2007SR,005,6,2007_005u,14-Jul-2020 04:04:36,13-Jul-2020 20:04:36,32.84622,-117.53024,093.3 030.0,093.3,030.0,472.000,475.892,,7.0100,,7.0117,,7.0109,34.2792,,34.2794,34.2801,,34.2817,34.2806,0.4878,,0.4920,0.5018,1.5024,,-99.0,0.3663,0.4341,21.215,21.6582,22.0004,65.341,,20.0727,21.0366,0.0319,,,,,,,,26.8558,,26.8562,,0.6298,85.4325,,7.563,,5.7128E+00,,8.4513E-02,,6.9650,6.9667,0.9112,,7.193,22.154,,,,,,,,,,,,
CalCOFI,2007SR,005,6,2007_005u,14-Jul-2020 04:04:37,13-Jul-2020 20:04:37,32.84622,-117.53024,093.3 030.0,093.3,030.0,471.000,474.883,,7.0164,,7.0171,,7.0168,34.2793,,34.2795,34.2799,,34.2815,34.2805,0.4848,,0.4889,0.4987,1.5021,,-99.0,0.3655,0.4321,21.085,21.5225,21.8650,65.329,,20.0425,20.9538,0.0322,,,,,,,,26.8549,,26.8553,,0.6305,85.4168,,7.564,,5.7128E+00,,8.7263E-02,,6.9715,6.9722,0.9112,,7.150,22.153,,,,,,,,,,,,
CalCOFI,2007SR,005,6,2007_005u,14-Jul-2020 04:04:38,13-Jul-2020 20:04:38,32.84622,-117.53024,093.3 030.0,093.3,030.0,470.000,473.873,,7.0180,,7.0183,,7.0182,34.2792,,34.2794,34.2799,,34.2815,34.2805,0.4832,,0.4872,0.4970,1.5076,,-99.0,0.3798,0.4384,21.015,21.4495,21.7920,65.567,,20.6422,21.2171,0.0324,,,,,,,,26.8546,,26.8551,,0.6316,85.3943,,7.564,,5.7128E+00,,8.7513E-02,,6.9732,6.9734,0.9112,,7.126,22.235,,,,,,,,,,,,
CalCOFI,2007SR,005,6,2007_005u,14-Jul-2020 04:04:39,13-Jul-2020 20:04:39,32.84622,-117.53024,093.3 030.0,093.3,030.0,469.000,472.864,,7.0212,,7.0217,,7.0215,34.2793,,34.2795,34.2799,,34.2815,34.2805,0.4839,,0.4879,0.4978,1.5040,,-99.0,0.3705,0.4342,21.046,21.4818,21.8243,65.411,,20.2491,21.0367,0.0320,,,,,,,,26.8543,,26.8546,,0.6308,85.4118,,7.564,,5.7128E+00,,8.3438E-02,,6.9765,6.9770,0.9112,,7.137,22.183,,,,,,,,,,,,
CalCOFI,2007SR,005,6,2007_005u,14-Jul-2020 04:04:40,13-Jul-2020 20:04:40,32.84622,-117.53024,093.3 030.0,093.3,030.0,468.000,471.855,,7.0277,,7.0278,,7.0278,34.2794,,34.2796,34.2800,,34.2816,34.2806,0.4906,,0.4949,0.5048,1.5032,,-99.0,0.3684,0.4366,21.338,21.7866,22.1286,65.377,,20.1634,21.1460,0.0314,,,,,,,,26.8534,,26.8539,,0.6297,85.4355,,7.564,,5.7128E+00,,9.4119E-02,,6.9830,6.9831,0.9112,,7.237,22.175,,,,,,,,,,,,
CalCOFI,2007SR,005,6,2007_005u,14-Jul-2020 04:04:41,13-Jul-2020 20:04:41,32.84622,-117.53024,093.3 030.0,093.3,030.0,467.000,470.845,,7.0321,,7.0329,,7.0325,34.2795,,34.2797,34.2802,,34.2818,34.2808,0.4878,,0.4920,0.5018,1.5028,,-99.0,0.3673,0.4346,21.217,21.6603,22.0025,65.360,,20.1206,21.0616,0.0322,,,,,,,,26.8529,,26.8533,,0.6293,85.4444,,7.564,,5.7128E+00,,9.8143E-02,,6.9876,6.9883,0.9112,,7.197,22.172,,,,,,,,,,,,
CalCOFI,2007SR,005,6,2007_005u,14-Jul-2020 04:04:42,13-Jul-2020 20:04:42,32.84622,-117.53024,093.3 030.0,093.3,030.0,466.000,469.836,,7.0426,,7.0443,,7.0435,34.2798,,34.2800,34.2803,,34.2819,34.2810,0.4865,,0.4906,0.5005,1.5022,,-99.0,0.3658,0.4332,21.160,21.6008,21.9431,65.332,,20.0500,20.9966,0.0323,,,,,,,,26.8517,,26.8519,,0.6293,85.4429,,7.564,,5.7128E+00,,1.0022E-01,,6.9981,6.9998,0.9112,,7.180,22.168,,,,,,,,,,,,
CalCOFI,2007SR,005,6,2007_005u,14-Jul-2020 04:04:43,13-Jul-2020 20:04:43,32.84622,-117.53024,093.3 030.0,093.3,030.0,465.000,468.826,,7.0473,,7.0480,,7.0477,34.2797,,34.2799,34.2801,,34.2817,34.2808,0.4919,,0.4963,0.5061,1.5018,,-99.0,0.3647,0.4354,21.392,21.8430,22.1849,65.317,,20.0123,21.0986,0.0320,,,,,,,,26.8509,,26.8512,,0.6292,85.4455,,7.564,,5.7128E+00,,1.0044E-01,,7.0029,7.0036,0.9112,,7.259,22.165,,,,,,,,,,,,
CalCOFI,2007SR,005,6,2007_005u,14-Jul-2020 04:04:44,13-Jul-2020 20:04:44,32.84622,-117.53024,093.3 030.0,093.3,030.0,464.000,467.817,,7.0488,,7.0491,,7.0490,34.2795,,34.2797,34.2802,,34.2818,34.2808,0.4933,,0.4977,0.5076,1.5016,,-99.0,0.3642,0.4359,21.456,21.9098,22.2516,65.307,,19.9871,21.1194,0.0317,,,,,,,,26.8506,,26.8511,,0.6294,85.4419,,7.564,,5.7128E+00,,1.0995E-01,,7.0045,7.0048,0.9112,,7.281,22.162,,,,,,,,,,,,
CalCOFI,2007SR,005,6,2007_005u,14-Jul-2020 04:04:45,13-Jul-2020 20:04:45,32.84622,-117.53024,093.3 030.0,093.3,030.0,463.000,466.808,,7.0570,,7.0590,,7.0580,34.2800,,34.2802,34.2809,,34.2825,34.2814,0.4893,,0.4936,0.5034,1.5010,,-99.0,0.3627,0.4331,21.281,21.7271,22.0692,65.282,,19.9241,20.9967,0.0328,,,,,,,,26.8498,,26.8502,,0.6292,85.4463,,7.564,,5.7128E+00,,1.0292E-01,,7.0127,7.0148,0.9112,,7.223,22.158,,,,,,,,,,,,
CalCOFI,2007SR,005,6,2007_005u,14-Jul-2020 04:04:46,13-Jul-2020 20:04:46,32.84622,-117.53024,093.3 030.0,093.3,030.0,462.000,465.798,,7.0662,,7.0671,,7.0667,34.2799,,34.2801,34.2804,,34.2820,34.2811,0.4921,,0.4965,0.5063,1.5008,,-99.0,0.3621,0.4342,21.402,21.8534,22.1953,65.274,,19.9039,21.0496,0.0322,,,,,,,,26.8485,,26.8488,,0.6316,85.3934,,7.564,,5.7128E+00,,1.0808E-01,,7.0220,7.0229,0.9112,,7.266,22.160,,,,,,,,,,,,
CalCOFI,2007SR,005,6,2007_005u,14-Jul-2020 04:04:47,13-Jul-2020 20:04:47,32.84622,-117.53024,093.3 030.0,093.3,030.0,461.000,464.789,,7.0732,,7.0734,,7.0733,34.2802,,34.2804,34.2809,,34.2825,34.2815,0.4967,,0.5013,0.5111,1.5023,,-99.0,0.3660,0.4386,21.603,22.0633,22.4047,65.338,,20.0652,21.2350,0.0317,,,,,,,,26.8477,,26.8482,,0.6327,85.3712,,7.565,,5.7128E+00,,1.0881E-01,,7.0291,7.0293,0.9112,,7.335,22.185,,,,,,,,,,,,